Wind_Speed
4 4 3 2 2 3 3 3 3 4 5 6 7 6 6 5 5 5 5 5 5 6 8 8 8 8 8 9 10 10 9 9 9 10 10 10 10 11 11 11 12 12 12 12 12 13 13 14 14
6 4 4 3 2 3 3 4 4 4 4 5 5 5 5 5 5 5 5 6 6 7 8 8 8 9 9 10 10 10 10 10 9 10 10 10 11 11 12 12 13 12 13 13 13 14 14 14 14
7 5 4 5 4 3 4 4 4 4 4 4 4 4 4 5 5 6 6 6 6 7 8 8 9 9 9 9 10 10 10 10 10 10 11 11 12 12 13 13 13 13 13 14 13 13 13 14 15
8 7 6 5 4 4 4 3 4 4 4 4 3 3 4 5 6 6 7 7 7 8 9 9 9 9 9 9 10 10 9 9 10 11 12 12 13 13 13 13 13 14 14 14 14 14 14 14 15
11 9 8 7 6 5 4 4 4 4 5 4 3 2 3 4 5 6 7 8 8 8 9 9 10 10 9 9 10 10 10 9 11 12 13 13 13 14 14 14 14 14 14 14 14 14 14 14 14
13 11 9 8 7 5 5 5 4 4 5 4 3 2 4 5 5 6 7 8 8 9 10 10 10 10 9 9 10 10 10 11 12 13 13 13 14 14 14 14 15 15 14 14 14 14 14 13 14
14 13 11 10 8 7 6 5 5 5 4 4 4 3 5 5 6 6 7 8 9 9 9 10 10 9 9 9 10 10 11 12 13 14 14 14 15 15 15 15 15 15 15 14 14 14 14 13 13
17 15 13 11 10 8 7 6 6 5 4 4 4 4 5 6 6 7 8 9 9 10 9 9 9 9 9 10 10 11 12 13 14 14 15 15 16 16 16 16 16 15 15 15 14 14 14 14 13
19 17 16 14 11 9 8 7 6 6 5 5 5 4 5 6 7 7 8 8 9 10 10 10 9 9 9 9 10 11 12 13 14 15 16 16 16 16 16 16 16 16 16 15 15 14 14 14 14
20 18 17 14 11 8 7 7 6 6 6 5 5 5 5 6 7 7 8 8 9 9 10 10 10 9 10 10 10 11 12 13 14 15 16 17 17 17 17 17 17 17 16 16 15 15 15 15 15
21 19 18 15 12 9 7 7 6 6 6 5 4 5 6 6 7 7 8 8 9 9 10 10 10 10 10 11 11 12 13 14 15 16 17 17 17 17 17 17 17 17 17 17 16 16 15 15 15
21 19 18 15 13 11 9 8 8 7 6 5 5 5 6 7 8 8 8 8 9 9 10 10 10 10 10 11 12 13 14 15 16 17 17 17 18 18 18 18 18 18 17 17 17 17 16 16 15
21 20 18 15 14 12 11 10 8 7 6 6 6 6 7 7 8 8 8 8 9 9 10 10 10 10 11 11 12 13 14 15 16 17 17 18 19 19 19 19 18 18 17 17 17 17 17 17 16
21 20 19 17 14 13 11 10 9 7 7 7 7 7 7 8 8 8 8 8 8 9 9 9 10 10 11 11 12 13 14 15 16 17 17 18 19 20 20 19 18 18 17 18 18 18 17 16 16
22 21 19 17 15 13 11 10 8 7 7 7 7 7 7 7 7 7 7 8 8 9 10 9 10 10 11 12 12 13 14 15 16 17 18 18 19 20 20 19 19 18 18 19 19 18 16 15 15
22 21 20 17 15 13 11 10 8 6 6 6 5 5 5 6 6 7 7 7 8 9 9 10 10 11 11 12 12 13 14 15 16 17 18 19 19 20 20 20 20 19 19 19 19 18 16 14 14
22 20 19 17 15 12 11 8 6 5 5 5 5 4 4 4 5 6 7 7 8 9 9 10 10 11 11 12 13 13 14 15 16 17 18 19 20 20 20 20 21 21 20 19 18 17 16 14 13
21 19 17 15 13 12 11 8 6 5 5 4 4 4 4 4 4 6 7 8 8 8 9 9 10 11 11 12 12 13 14 15 16 17 18 19 19 20 21 21 22 21 21 20 18 17 15 14 12
19 18 16 15 12 11 10 8 6 5 4 3 2 3 3 4 4 5 6 7 7 8 9 9 10 10 11 11 12 12 13 14 15 16 17 19 19 20 21 22 22 22 21 21 19 16 15 13 11
22 20 16 14 12 11 9 7 6 5 4 3 2 3 3 3 4 5 6 7 8 8 9 9 9 9 10 10 11 12 13 14 15 16 17 19 19 19 20 22 22 22 22 21 19 17 14 13 11
20 18 16 14 12 9 7 6 6 6 4 3 2 2 2 3 4 4 5 7 8 8 8 8 8 9 10 10 11 12 13 14 15 16 17 19 19 20 21 22 22 21 22 21 20 17 14 12 10
21 19 15 12 11 8 6 6 5 3 3 2 1 1 1 2 3 4 5 5 6 7 7 8 8 9 10 10 12 12 13 14 15 16 17 18 19 20 21 22 22 22 22 22 20 18 15 12 9
21 19 15 13 11 9 6 4 4 3 3 2 1 1 1 2 3 3 4 5 6 6 7 8 8 9 10 10 11 13 14 15 16 16 17 18 18 19 20 21 21 21 22 21 20 18 15 12 9
20 19 17 15 14 11 9 6 5 4 4 3 2 1 1 2 2 3 4 5 6 6 7 7 8 9 10 11 12 13 14 15 16 17 17 18 18 19 20 21 21 21 21 21 20 18 16 13 10
21 20 18 18 15 13 10 10 9 7 6 5 4 2 2 2 2 3 4 4 5 6 6 6 7 9 10 11 12 13 14 15 16 17 18 19 19 19 19 20 20 20 20 20 19 18 16 14 11
20 20 18 16 14 12 10 12 9 7 7 6 4 3 2 2 3 3 3 4 4 5 5 6 7 8 10 11 12 13 14 15 16 17 18 19 20 20 20 20 20 20 19 19 18 17 16 14 13
22 19 17 13 13 11 11 11 8 8 8 6 5 4 3 3 2 3 3 4 4 5 5 6 7 8 10 11 13 14 15 16 17 18 19 20 20 20 20 20 20 20 19 18 18 17 16 14 12
21 19 14 12 13 11 10 10 8 8 8 6 5 4 4 3 2 2 3 3 4 5 5 6 7 9 10 12 13 15 16 17 18 19 20 21 21 21 21 21 20 20 19 18 17 16 16 15 13
19 17 15 12 11 10 10 11 9 7 7 6 5 4 4 3 2 2 3 3 4 5 6 7 8 9 11 12 14 15 16 17 18 19 21 21 21 21 21 21 21 21 20 19 18 16 15 14 13
18 16 15 13 13 14 13 13 11 8 7 6 5 4 3 2 2 1 2 3 4 5 6 7 8 10 11 13 14 15 17 18 19 20 21 22 22 22 22 22 22 21 21 20 19 18 16 15 14
Wind_Direction
237 261 279 278 254 227 218 207 209 206 204 211 218 223 223 227 249 260 266 283 294 299 303 306 303 304 308 311 314 317 320 322 322 323 323 322 319 316 314 311 309 304 300 296 291 284 278 270 264
228 240 242 238 232 237 240 214 211 194 197 207 216 224 234 241 253 261 269 282 292 299 304 308 305 307 311 313 316 319 320 321 323 324 324 323 320 316 314 313 311 307 304 300 294 288 282 273 268
224 225 223 226 218 234 243 210 204 197 199 210 222 232 242 249 254 265 276 283 295 303 305 308 309 312 315 318 319 320 322 323 325 326 325 323 321 319 316 313 310 308 307 304 298 292 285 277 269
221 220 219 215 211 221 222 201 199 201 208 217 224 236 250 263 264 272 281 286 298 305 307 308 309 313 315 318 322 323 324 326 327 327 326 324 323 321 319 317 313 309 306 304 301 295 290 281 274
219 213 216 217 215 213 200 192 194 209 220 225 226 246 263 277 278 281 286 290 298 305 307 308 309 313 314 319 323 325 326 327 328 328 327 325 324 323 322 320 317 313 309 305 300 296 291 285 276
217 214 214 217 212 213 206 203 210 228 237 240 236 260 273 281 285 292 293 292 301 308 309 309 310 315 317 321 324 325 327 328 329 329 329 328 327 326 324 322 319 316 313 308 302 297 294 286 277
213 210 212 214 205 207 208 209 217 234 244 252 259 274 277 279 285 295 297 299 305 309 308 309 314 318 320 321 324 326 328 330 330 330 331 329 328 326 325 322 320 318 315 310 305 300 295 288 279
212 210 212 214 212 206 206 217 228 235 246 258 271 289 289 285 291 299 302 304 308 311 312 310 314 319 321 323 324 326 329 330 330 331 332 330 328 327 325 323 321 319 316 312 306 300 295 290 283
213 212 214 214 211 207 204 216 228 235 245 259 278 299 301 296 297 302 304 303 306 312 316 316 316 317 321 323 325 328 330 332 332 333 333 331 328 327 325 323 322 320 317 313 308 301 295 290 286
214 213 215 216 214 209 212 221 229 239 250 257 276 292 294 298 300 300 304 307 308 313 317 318 318 321 325 326 327 330 332 333 334 334 333 332 329 327 325 323 323 321 317 313 309 304 299 292 285
212 213 213 212 214 220 226 230 237 246 257 262 276 289 294 298 302 301 305 309 314 317 318 319 319 322 324 325 329 332 333 335 336 336 336 335 332 329 326 324 323 321 318 315 310 304 299 294 287
210 210 211 214 217 220 226 236 246 254 259 271 289 296 298 299 306 309 309 311 316 320 321 321 322 323 324 327 332 334 335 336 338 338 337 336 334 331 328 326 325 322 319 317 313 306 301 296 289
213 212 211 213 219 223 228 234 249 256 260 275 287 295 296 302 308 309 310 314 319 324 326 325 326 327 327 330 334 334 337 339 340 340 339 338 335 333 332 330 328 325 322 319 316 310 304 297 290
209 208 211 214 220 226 229 233 245 255 261 271 282 293 296 300 305 308 310 317 323 328 330 330 330 331 331 333 335 337 339 342 343 342 341 340 338 336 335 334 332 329 325 321 319 315 308 300 291
207 208 210 213 219 225 227 232 238 250 260 268 280 290 298 308 310 311 316 323 326 331 332 333 335 337 337 338 339 340 341 343 344 344 343 342 342 340 339 338 336 332 329 325 322 318 312 305 297
205 208 210 211 216 221 227 224 223 245 258 271 279 289 299 313 317 320 327 329 331 334 338 338 338 340 340 340 340 341 342 344 345 346 345 345 344 344 343 343 340 336 332 330 327 323 316 310 302
202 206 208 209 214 220 227 224 219 233 251 263 279 290 301 312 327 336 338 339 340 343 342 343 341 341 341 341 342 342 345 346 347 347 346 347 348 349 348 347 345 342 338 335 331 327 321 314 306
198 201 204 208 209 214 220 222 226 245 256 259 279 298 309 322 338 343 345 347 347 346 343 342 343 343 343 344 345 345 347 347 348 348 348 349 349 350 351 351 349 347 345 342 337 331 325 319 311
190 195 200 205 200 205 210 211 217 226 227 237 275 312 322 329 339 341 344 347 347 346 345 345 345 343 342 346 348 349 349 348 349 349 349 350 350 351 353 352 352 351 350 347 342 337 330 326 318
187 188 188 193 191 200 205 197 202 206 210 216 264 304 320 325 340 340 348 347 346 344 344 347 346 346 344 346 348 349 349 349 349 349 349 350 350 352 353 353 353 353 353 350 347 342 337 331 325
185 182 183 183 180 192 201 200 202 209 205 209 234 290 311 329 338 351 351 348 352 352 350 350 349 350 348 347 348 349 349 348 348 349 349 350 350 351 353 354 355 356 356 354 351 348 345 340 333
183 179 179 172 171 176 195 192 195 209 216 212 229 298 344 345 346 349 348 351 355 356 354 355 356 354 352 349 348 348 348 347 348 349 349 349 350 352 354 355 356 358 359 359 357 355 353 351 344
179 174 170 163 158 160 176 193 201 234 243 235 272 307 341 345 347 351 352 353 354 351 351 354 356 355 354 352 350 350 349 348 349 349 349 350 350 351 353 355 357 358 360 2 2 1 360 357 355
172 169 166 165 165 176 182 213 225 243 259 269 275 281 320 342 346 350 354 355 353 352 352 354 356 357 356 355 353 352 351 351 350 351 351 351 350 350 352 355 358 359 0 2 4 3 4 4 3
168 166 167 173 178 180 188 221 236 238 253 263 265 265 287 314 331 337 343 350 352 353 353 355 358 358 358 356 355 353 353 352 352 351 351 351 350 349 350 353 356 358 360 2 4 5 2 4 6
169 168 174 180 181 177 205 231 239 242 249 252 257 260 272 292 313 325 333 343 348 354 357 357 356 355 355 355 354 354 353 353 353 352 351 350 350 349 348 350 353 355 357 359 1 3 3 2 4
173 177 175 173 169 182 218 236 240 239 244 252 263 266 263 270 292 319 336 345 351 355 356 354 353 352 351 352 352 353 352 352 352 351 351 350 349 348 348 348 349 350 351 354 356 358 359 357 357
181 177 174 169 164 183 230 254 247 237 245 251 255 258 257 261 280 319 339 346 349 351 352 351 350 349 347 347 347 349 351 350 350 350 350 350 349 348 347 346 345 346 348 347 348 351 354 354 352
182 181 178 170 167 187 219 241 247 246 245 245 247 251 257 267 283 317 342 348 348 347 348 347 346 345 345 345 345 347 348 348 348 348 348 348 348 347 346 345 343 342 343 344 344 343 345 348 348
185 184 183 183 184 195 217 233 250 254 249 247 246 248 254 269 285 314 337 342 344 346 345 343 342 340 341 341 342 343 345 345 345 345 345 345 345 345 344 343 341 339 338 338 339 338 337 337 337
Height
5867 5867 5867 5868 5868 5868 5868 5869 5869 5870 5872 5873 5874 5875 5876 5877 5879 5882 5880 5880 5881 5880 5880 5880 5879 5879 5878 5877 5876 5875 5874 5873 5872 5871 5870 5869 5869 5868 5867 5866 5865 5864 5863 5863 5862 5862 5862 5862 5862
5866 5867 5868 5868 5868 5868 5868 5868 5869 5871 5872 5872 5873 5875 5876 5877 5878 5879 5879 5879 5880 5880 5879 5879 5878 5878 5877 5876 5875 5874 5874 5873 5872 5870 5869 5868 5867 5866 5865 5864 5863 5862 5861 5861 5860 5860 5859 5860 5860
5865 5866 5868 5868 5868 5868 5868 5868 5870 5871 5872 5873 5874 5875 5876 5877 5878 5878 5878 5879 5879 5879 5879 5878 5878 5877 5876 5875 5874 5874 5873 5872 5871 5869 5868 5867 5866 5865 5864 5862 5861 5860 5859 5859 5858 5857 5857 5857 5857
5865 5867 5868 5868 5867 5867 5867 5868 5870 5871 5872 5873 5874 5875 5876 5877 5877 5878 5878 5878 5879 5878 5878 5877 5877 5876 5875 5875 5874 5873 5871 5871 5870 5868 5867 5866 5864 5863 5862 5861 5859 5858 5857 5856 5855 5855 5854 5854 5854
5863 5866 5867 5867 5867 5867 5868 5869 5870 5871 5872 5873 5874 5875 5875 5877 5877 5877 5877 5878 5878 5878 5877 5876 5876 5875 5874 5874 5873 5872 5871 5870 5869 5867 5866 5864 5863 5861 5860 5859 5857 5856 5855 5854 5853 5852 5851 5851 5851
5862 5864 5866 5866 5866 5867 5868 5869 5870 5871 5872 5873 5874 5875 5875 5876 5876 5877 5877 5877 5877 5877 5876 5875 5875 5874 5874 5873 5872 5871 5870 5869 5867 5866 5864 5863 5861 5860 5858 5857 5855 5853 5852 5851 5850 5849 5848 5848 5847
5861 5863 5864 5864 5865 5866 5868 5869 5870 5871 5872 5873 5874 5875 5875 5875 5876 5876 5876 5876 5876 5876 5876 5875 5874 5873 5873 5872 5871 5870 5869 5868 5866 5864 5863 5861 5859 5858 5856 5854 5853 5851 5850 5848 5847 5846 5845 5845 5844
5858 5862 5862 5863 5864 5865 5867 5868 5869 5871 5871 5872 5874 5874 5875 5875 5875 5875 5875 5875 5875 5874 5874 5874 5873 5872 5871 5870 5870 5869 5868 5866 5865 5863 5861 5859 5858 5856 5854 5852 5850 5848 5847 5846 5844 5843 5843 5842 5841
5856 5860 5860 5861 5862 5864 5865 5867 5869 5870 5871 5872 5873 5874 5874 5874 5874 5875 5874 5874 5874 5873 5873 5872 5872 5871 5871 5870 5869 5867 5866 5865 5863 5862 5860 5858 5856 5854 5852 5850 5848 5846 5844 5843 5841 5840 5839 5839 5838
5853 5856 5858 5859 5861 5863 5864 5866 5868 5869 5870 5871 5872 5873 5873 5873 5873 5873 5873 5873 5873 5872 5872 5871 5870 5870 5869 5868 5867 5866 5865 5864 5862 5860 5858 5856 5854 5852 5850 5847 5845 5843 5841 5840 5838 5837 5836 5835 5835
5850 5854 5856 5858 5860 5862 5864 5866 5867 5868 5869 5870 5871 5872 5872 5872 5872 5872 5872 5872 5872 5871 5870 5870 5869 5868 5868 5867 5866 5865 5864 5862 5860 5859 5857 5854 5852 5850 5847 5845 5843 5841 5838 5837 5835 5833 5832 5831 5831
5847 5851 5854 5857 5859 5862 5864 5865 5866 5867 5869 5869 5870 5871 5871 5871 5871 5871 5871 5871 5870 5870 5869 5868 5868 5867 5866 5865 5864 5863 5862 5861 5859 5857 5855 5853 5850 5848 5845 5843 5840 5838 5835 5833 5832 5830 5829 5827 5827
5845 5849 5853 5856 5859 5861 5863 5865 5866 5867 5868 5868 5869 5870 5870 5870 5870 5870 5869 5869 5869 5869 5868 5867 5867 5866 5865 5864 5863 5862 5861 5859 5858 5856 5853 5851 5848 5846 5843 5840 5837 5835 5832 5830 5828 5826 5824 5823 5823
5843 5847 5851 5854 5857 5860 5862 5864 5865 5866 5867 5868 5868 5869 5869 5869 5869 5869 5868 5868 5868 5867 5867 5866 5866 5865 5864 5863 5862 5861 5860 5858 5856 5854 5852 5849 5847 5844 5841 5838 5835 5832 5830 5827 5825 5822 5820 5819 5818
5841 5846 5850 5853 5856 5859 5861 5862 5863 5865 5866 5867 5867 5868 5868 5868 5868 5868 5867 5867 5866 5866 5866 5865 5864 5864 5863 5862 5861 5860 5859 5857 5855 5853 5851 5848 5845 5842 5839 5836 5833 5830 5827 5824 5821 5818 5816 5815 5814
5840 5844 5848 5852 5855 5857 5861 5861 5862 5863 5865 5866 5866 5867 5867 5867 5867 5867 5866 5866 5865 5865 5864 5864 5863 5863 5862 5861 5860 5859 5858 5856 5854 5852 5850 5847 5844 5840 5837 5834 5831 5828 5824 5821 5818 5815 5813 5811 5810
5838 5843 5846 5850 5853 5856 5858 5859 5860 5862 5864 5864 5865 5866 5866 5866 5866 5866 5865 5865 5864 5864 5863 5863 5862 5861 5861 5860 5859 5858 5857 5855 5853 5851 5848 5846 5842 5839 5836 5833 5829 5825 5822 5818 5815 5812 5810 5808 5807
5838 5841 5845 5849 5852 5854 5856 5858 5860 5861 5863 5864 5864 5864 5865 5865 5865 5865 5864 5864 5863 5863 5862 5862 5861 5860 5860 5859 5858 5857 5855 5854 5852 5850 5847 5844 5841 5838 5835 5831 5828 5824 5820 5816 5813 5810 5807 5805 5804
5836 5840 5844 5847 5851 5853 5855 5857 5859 5860 5862 5863 5863 5864 5864 5864 5864 5864 5864 5863 5863 5862 5861 5861 5860 5860 5859 5858 5857 5856 5854 5853 5851 5849 5846 5844 5840 5837 5834 5830 5827 5823 5819 5815 5811 5808 5805 5803 5802
5834 5838 5842 5846 5850 5853 5854 5857 5858 5860 5861 5862 5863 5863 5863 5864 5863 5863 5863 5862 5862 5861 5861 5860 5859 5859 5858 5857 5856 5855 5853 5852 5850 5848 5846 5843 5840 5837 5833 5830 5826 5822 5818 5813 5809 5806 5804 5802 5800
5833 5837 5841 5846 5849 5852 5855 5857 5858 5860 5861 5862 5862 5863 5863 5863 5863 5862 5862 5861 5861 5860 5860 5859 5859 5858 5857 5856 5855 5854 5852 5851 5849 5847 5845 5842 5839 5836 5832 5829 5825 5821 5817 5813 5809 5805 5803 5800 5799
5833 5838 5842 5846 5850 5852 5855 5856 5857 5859 5860 5861 5861 5862 5862 5862 5862 5862 5862 5861 5861 5860 5859 5859 5858 5857 5857 5856 5854 5853 5852 5850 5848 5846 5844 5841 5838 5835 5832 5828 5825 5821 5817 5813 5809 5805 5802 5800 5799
5833 5838 5843 5847 5850 5853 5855 5856 5858 5858 5859 5860 5861 5861 5861 5861 5861 5861 5861 5861 5860 5860 5859 5858 5857 5857 5856 5855 5854 5852 5851 5849 5847 5845 5843 5840 5838 5835 5831 5828 5824 5821 5817 5813 5809 5806 5803 5800 5799
5834 5840 5844 5847 5850 5853 5855 5856 5857 5858 5859 5860 5860 5860 5861 5861 5861 5860 5860 5860 5860 5859 5858 5858 5857 5856 5855 5854 5853 5852 5850 5848 5846 5844 5842 5839 5837 5834 5831 5828 5824 5821 5817 5813 5810 5807 5804 5802 5800
5835 5840 5844 5847 5849 5852 5855 5856 5857 5857 5858 5859 5859 5860 5860 5860 5860 5860 5860 5859 5859 5858 5858 5857 5856 5856 5855 5854 5853 5851 5849 5847 5845 5843 5841 5839 5836 5833 5830 5827 5824 5821 5817 5814 5811 5808 5805 5803 5801
5835 5840 5844 5847 5849 5852 5855 5854 5856 5857 5858 5858 5858 5859 5859 5859 5859 5859 5859 5858 5858 5857 5857 5856 5856 5855 5854 5853 5852 5850 5848 5846 5844 5842 5840 5838 5835 5832 5829 5826 5823 5820 5817 5814 5811 5809 5806 5804 5802
5834 5838 5842 5845 5847 5852 5853 5854 5855 5856 5857 5857 5857 5857 5858 5858 5858 5858 5857 5857 5857 5857 5856 5856 5855 5854 5853 5852 5851 5849 5847 5846 5844 5841 5839 5837 5834 5831 5828 5825 5823 5820 5817 5815 5812 5809 5807 5805 5803
5833 5836 5840 5844 5847 5850 5852 5852 5854 5855 5855 5856 5856 5856 5857 5857 5857 5857 5856 5856 5856 5856 5855 5855 5854 5854 5853 5851 5850 5848 5846 5844 5842 5840 5838 5835 5832 5830 5827 5824 5822 5819 5816 5814 5812 5809 5807 5805 5803
5835 5838 5840 5843 5847 5851 5851 5853 5852 5853 5854 5854 5855 5855 5856 5856 5856 5856 5855 5855 5855 5855 5854 5854 5853 5852 5851 5850 5849 5847 5845 5843 5841 5839 5836 5834 5831 5828 5826 5823 5820 5818 5815 5813 5811 5809 5807 5805 5803
5833 5836 5840 5843 5846 5848 5849 5852 5850 5851 5852 5853 5854 5854 5854 5855 5855 5854 5854 5854 5854 5854 5853 5853 5852 5851 5850 5848 5847 5845 5843 5841 5839 5837 5834 5832 5829 5826 5823 5821 5818 5815 5813 5811 5809 5807 5805 5804 5802